TimePST,TemperatureF,Dew PointF,Humidity,Sea Level PressureIn,VisibilityMPH,Wind Direction,Wind SpeedMPH,Gust SpeedMPH,PrecipitationIn,Events,Conditions,WindDirDegrees,DateUTC
12:15 AM,32.0,32.0,100,30.31,0.2,SSE,5.8,-,N/A,Fog,Fog,150,2014-01-21 08:15:00
12:35 AM,32.0,32.0,100,30.30,0.5,SSE,3.5,-,N/A,Fog,Fog,150,2014-01-21 08:35:00
12:55 AM,32.0,32.0,100,30.30,0.5,SSE,3.5,-,N/A,Fog,Fog,150,2014-01-21 08:55:00
1:15 AM,32.0,32.0,100,30.30,1.0,SSE,3.5,-,N/A,,Overcast,160,2014-01-21 09:15:00
1:35 AM,32.0,32.0,100,30.30,0.8,Calm,Calm,-,N/A,,Overcast,0,2014-01-21 09:35:00
1:55 AM,32.0,32.0,100,30.31,1.5,Calm,Calm,-,N/A,,Overcast,0,2014-01-21 09:55:00
2:15 AM,32.0,32.0,100,30.30,2.5,ENE,3.5,-,N/A,,Overcast,70,2014-01-21 10:15:00
2:35 AM,32.0,32.0,100,30.30,0.5,Calm,Calm,-,N/A,Fog,Fog,0,2014-01-21 10:35:00
2:55 AM,32.0,32.0,100,30.31,1.5,SSE,3.5,-,N/A,,Overcast,160,2014-01-21 10:55:00
3:15 AM,32.0,32.0,100,30.31,3.0,South,3.5,-,N/A,,Overcast,170,2014-01-21 11:15:00
3:35 AM,32.0,32.0,100,30.31,1.0,SSW,3.5,-,N/A,,Overcast,200,2014-01-21 11:35:00
3:55 AM,32.0,32.0,100,30.31,0.8,Calm,Calm,-,N/A,,Overcast,0,2014-01-21 11:55:00
4:15 AM,32.0,32.0,100,30.31,0.8,Calm,Calm,-,N/A,,Overcast,0,2014-01-21 12:15:00
4:35 AM,32.0,32.0,100,30.30,0.8,Calm,Calm,-,N/A,,Overcast,0,2014-01-21 12:35:00
4:55 AM,32.0,32.0,100,30.30,0.2,Calm,Calm,-,N/A,Fog,Light Freezing Fog,0,2014-01-21 12:55:00
5:15 AM,32.0,32.0,100,30.29,0.2,Calm,Calm,-,N/A,Fog,Light Freezing Fog,0,2014-01-21 13:15:00
5:35 AM,30.2,30.2,100,30.29,0.2,Calm,Calm,-,N/A,Fog,Light Freezing Fog,0,2014-01-21 13:35:00
5:55 AM,30.2,30.2,100,30.29,0.5,Calm,Calm,-,N/A,Fog,Light Freezing Fog,0,2014-01-21 13:55:00
6:15 AM,30.2,30.2,100,30.29,0.5,Calm,Calm,-,N/A,Fog,Light Freezing Fog,0,2014-01-21 14:15:00
6:35 AM,30.2,30.2,100,30.29,2.0,Calm,Calm,-,N/A,,Clear,0,2014-01-21 14:35:00
6:55 AM,30.2,30.2,100,30.29,5.0,Calm,Calm,-,N/A,,Clear,0,2014-01-21 14:55:00
7:15 AM,30.2,30.2,100,30.29,10.0,Calm,Calm,-,N/A,,Clear,0,2014-01-21 15:15:00
7:35 AM,30.2,30.2,100,30.29,8.0,Calm,Calm,-,N/A,,Clear,0,2014-01-21 15:35:00
7:55 AM,30.2,30.2,100,30.29,5.0,Calm,Calm,-,N/A,,Clear,0,2014-01-21 15:55:00
8:15 AM,30.2,30.2,100,30.29,5.0,Calm,Calm,-,N/A,,Clear,0,2014-01-21 16:15:00
8:35 AM,32.0,32.0,100,30.30,7.0,Calm,Calm,-,N/A,,Clear,0,2014-01-21 16:35:00
8:55 AM,32.0,32.0,100,30.31,9.0,Calm,Calm,-,N/A,,Clear,0,2014-01-21 16:55:00
9:15 AM,33.8,33.8,100,30.31,10.0,Calm,Calm,-,N/A,,Clear,0,2014-01-21 17:15:00
9:35 AM,35.6,35.6,100,30.31,10.0,SW,4.6,-,N/A,,Clear,230,2014-01-21 17:35:00
9:55 AM,35.6,35.6,100,30.31,6.0,SW,4.6,-,N/A,,Clear,220,2014-01-21 17:55:00
10:15 AM,35.6,33.8,93,30.31,10.0,Calm,Calm,-,N/A,,Clear,0,2014-01-21 18:15:00
10:35 AM,37.4,35.6,93,30.32,10.0,SW,3.5,-,N/A,,Clear,230,2014-01-21 18:35:00
10:55 AM,41.0,35.6,81,30.32,10.0,South,9.2,-,N/A,,Clear,190,2014-01-21 18:55:00
11:15 AM,44.6,35.6,71,30.31,10.0,South,6.9,-,N/A,,Clear,180,2014-01-21 19:15:00
11:35 AM,46.4,35.6,66,30.31,10.0,South,8.1,-,N/A,,Clear,180,2014-01-21 19:35:00
11:55 AM,48.2,35.6,62,30.30,10.0,South,6.9,-,N/A,,Clear,180,2014-01-21 19:55:00
12:15 PM,48.2,35.6,62,30.29,8.0,SSW,8.1,-,N/A,,Clear,200,2014-01-21 20:15:00
12:35 PM,50.0,35.6,58,30.29,10.0,SSW,6.9,-,N/A,,Clear,200,2014-01-21 20:35:00
12:55 PM,50.0,37.4,62,30.29,10.0,SSW,4.6,-,N/A,,Clear,210,2014-01-21 20:55:00
1:15 PM,50.0,37.4,62,30.28,10.0,SSW,3.5,-,N/A,,Clear,200,2014-01-21 21:15:00
1:35 PM,50.0,37.4,62,30.28,5.0,SW,5.8,-,N/A,,Haze,220,2014-01-21 21:35:00
1:55 PM,50.0,35.6,58,30.27,5.0,South,5.8,-,N/A,,Haze,170,2014-01-21 21:55:00
2:15 PM,50.0,35.6,58,30.27,5.0,South,4.6,-,N/A,,Haze,170,2014-01-21 22:15:00
2:35 PM,50.0,35.6,58,30.27,5.0,SSE,5.8,-,N/A,,Haze,160,2014-01-21 22:35:00
2:55 PM,50.0,35.6,58,30.26,5.0,SSE,5.8,-,N/A,,Haze,160,2014-01-21 22:55:00
3:15 PM,48.2,35.6,62,30.26,5.0,SSW,4.6,-,N/A,,Haze,210,2014-01-21 23:15:00
3:35 PM,48.2,35.6,62,30.26,10.0,SW,4.6,-,N/A,,Clear,220,2014-01-21 23:35:00
3:55 PM,48.2,37.4,66,30.30,10.0,WNW,4.6,-,N/A,,Clear,300,2014-01-21 23:55:00
4:15 PM,48.2,39.2,71,30.32,10.0,NW,4.6,-,N/A,,Clear,310,2014-01-22 00:15:00
4:35 PM,46.4,41.0,81,30.33,10.0,NW,5.8,-,N/A,,Clear,320,2014-01-22 00:35:00
4:55 PM,46.4,41.0,81,30.33,10.0,Calm,Calm,-,N/A,,Clear,0,2014-01-22 00:55:00
5:15 PM,44.6,39.2,81,30.33,10.0,Calm,Calm,-,N/A,,Clear,0,2014-01-22 01:15:00
5:35 PM,44.6,41.0,87,30.31,10.0,SE,8.1,-,N/A,,Clear,130,2014-01-22 01:35:00
5:55 PM,44.6,39.2,81,30.32,9.0,Calm,Calm,-,N/A,,Partly Cloudy,0,2014-01-22 01:55:00
6:15 PM,41.0,39.2,93,30.34,10.0,Calm,Calm,-,N/A,,Partly Cloudy,0,2014-01-22 02:15:00
6:35 PM,41.0,39.2,93,30.34,10.0,South,4.6,-,N/A,,Mostly Cloudy,180,2014-01-22 02:35:00
6:55 PM,41.0,39.2,93,30.34,10.0,SSW,3.5,-,N/A,,Mostly Cloudy,210,2014-01-22 02:55:00
7:15 PM,41.0,39.2,93,30.33,10.0,Calm,Calm,-,N/A,,Mostly Cloudy,0,2014-01-22 03:15:00
7:35 PM,39.2,37.4,93,30.33,10.0,SW,3.5,-,N/A,,Mostly Cloudy,230,2014-01-22 03:35:00
7:55 PM,39.2,37.4,93,30.34,10.0,SSW,3.5,-,N/A,,Overcast,210,2014-01-22 03:55:00
8:15 PM,39.2,37.4,93,30.33,10.0,Calm,Calm,-,N/A,,Overcast,0,2014-01-22 04:15:00
8:35 PM,39.2,37.4,93,30.33,9.0,SW,3.5,-,N/A,,Overcast,220,2014-01-22 04:35:00
8:55 PM,41.0,37.4,87,30.34,10.0,SSW,3.5,-,N/A,,Overcast,210,2014-01-22 04:55:00
9:15 PM,41.0,37.4,87,30.35,10.0,SSW,4.6,-,N/A,,Overcast,210,2014-01-22 05:15:00
9:35 PM,41.0,37.4,87,30.35,10.0,SSW,3.5,-,N/A,,Overcast,210,2014-01-22 05:35:00
9:55 PM,41.0,35.6,81,30.36,10.0,SSW,5.8,-,N/A,,Overcast,200,2014-01-22 05:55:00
10:15 PM,41.0,35.6,81,30.36,9.0,Calm,Calm,-,N/A,,Overcast,0,2014-01-22 06:15:00
10:35 PM,41.0,37.4,87,30.37,10.0,SSW,4.6,-,N/A,,Overcast,210,2014-01-22 06:35:00
10:55 PM,41.0,37.4,87,30.37,10.0,SSW,5.8,-,N/A,,Overcast,210,2014-01-22 06:55:00
11:15 PM,41.0,37.4,87,30.37,10.0,South,4.6,-,N/A,,Overcast,190,2014-01-22 07:15:00
11:35 PM,41.0,37.4,87,30.37,10.0,South,5.8,-,N/A,,Overcast,180,2014-01-22 07:35:00
11:55 PM,42.8,37.4,81,30.38,10.0,SSW,4.6,-,N/A,,Overcast,210,2014-01-22 07:55:00